Wind_Speed
18 18 18 17 17 17 17 17 17 17 18 18 17 18 19 19 18 19 20 12 9 8 7 7 6 4 8 10 13 6 2 4 4 3 8 2 4 12 12 21 14 15 11 10 32
18 19 20 20 19 19 18 18 18 18 18 18 18 19 21 21 22 17 4 3 5 7 6 6 8 7 6 5 7 6 4 6 6 3 6 7 8 19 6 15 1 14 10 27 31
17 18 19 20 21 21 21 20 19 19 19 19 18 18 19 21 20 3 5 5 3 5 8 9 11 9 7 6 5 5 4 4 13 15 6 8 16 9 16 4 15 31 32 34 34
18 19 20 20 20 21 22 22 21 20 20 20 19 18 18 17 5 6 4 6 5 8 10 11 8 4 3 4 3 4 10 8 9 26 3 4 6 6 23 8 26 32 37 38 35
20 20 20 21 22 22 21 22 23 22 21 20 19 18 17 11 20 17 20 15 10 10 14 14 11 7 4 3 3 4 5 14 19 26 27 11 9 11 23 10 27 35 38 39 34
20 22 22 23 24 24 23 22 22 22 22 21 19 18 15 10 9 9 8 7 11 13 16 17 11 8 7 6 3 5 12 16 19 22 13 10 7 14 9 23 38 38 41 38 35
22 23 24 24 24 25 24 24 23 22 21 21 20 18 17 33 15 23 26 21 16 12 16 16 17 11 1 5 2 5 6 7 10 7 4 14 13 4 15 39 41 38 42 40 36
25 26 27 27 28 27 25 24 23 21 20 19 19 17 15 26 24 25 28 27 23 25 18 13 7 10 6 8 5 3 3 3 5 8 5 9 10 19 16 37 37 37 37 41 39
27 28 29 28 29 28 26 22 18 14 13 12 11 10 13 14 14 14 8 14 16 18 17 15 10 8 9 1 5 6 5 4 10 5 1 3 13 13 20 35 34 35 35 37 39
25 26 27 27 27 28 22 16 13 3 12 5 3 5 15 14 10 14 18 13 13 19 16 15 9 2 3 3 7 5 4 4 4 6 6 11 16 8 22 29 34 34 34 35 41
26 28 28 28 28 23 18 9 15 4 21 13 23 27 36 22 30 30 22 21 13 9 6 8 4 7 14 8 4 3 4 9 9 14 1 14 12 5 18 21 20 29 32 33 37
26 27 28 27 26 12 17 9 12 12 18 33 33 32 35 35 22 33 17 7 7 8 5 3 8 9 5 5 7 5 6 11 11 15 6 11 11 7 12 23 31 33 31 32 29
27 28 30 27 21 12 13 12 12 16 6 20 11 8 13 7 15 34 22 12 5 6 9 16 10 7 5 7 6 5 6 15 9 17 4 5 8 6 2 13 26 29 39 34 42
25 26 27 27 8 20 4 10 10 10 4 8 7 3 14 5 7 18 25 24 7 9 9 12 9 11 8 10 7 9 12 12 11 5 9 4 7 7 7 4 10 31 32 35 39
24 26 24 26 23 20 9 11 8 1 4 3 7 4 23 5 17 9 22 16 14 9 6 8 9 7 11 17 8 14 7 9 11 8 1 5 2 7 2 9 7 11 31 36 45
23 24 27 24 21 9 10 11 3 5 5 7 7 11 14 6 8 12 9 12 13 8 4 7 8 5 12 16 9 7 3 3 4 3 3 8 7 5 4 8 7 12 33 39 39
25 23 25 22 16 11 7 6 5 3 5 7 6 11 8 6 9 6 8 2 6 5 5 3 7 6 8 6 3 4 5 7 5 3 8 7 3 8 7 9 13 11 29 39 45
23 21 15 11 5 2 1 5 2 3 5 5 6 10 4 8 12 10 10 8 4 5 3 6 12 7 6 9 10 7 9 6 5 7 10 5 6 7 9 12 21 28 30 41 41
21 12 5 8 5 4 2 4 6 5 4 8 9 4 5 8 2 8 6 3 5 2 4 5 5 8 5 8 8 5 5 9 4 1 2 5 8 8 6 10 8 14 24 37 41
22 8 5 3 4 2 4 3 3 3 7 2 3 3 4 10 9 8 6 4 8 13 2 3 2 2 5 2 3 7 5 2 1 3 4 5 5 6 8 9 8 4 8 26 32
16 4 0 6 3 3 3 5 5 10 11 3 7 5 7 4 4 4 5 7 7 10 7 5 3 6 1 4 8 3 2 4 3 4 5 2 7 6 8 6 10 8 13 25 36
6 2 3 10 3 2 1 4 7 12 17 8 4 4 4 4 4 2 4 4 16 8 5 3 2 2 9 8 6 7 6 6 5 7 3 4 7 5 6 10 9 9 13 15 17
11 4 4 8 0 3 6 5 5 4 6 5 3 1 2 3 4 3 6 10 15 6 2 4 3 3 9 7 5 3 6 7 5 5 7 4 7 3 11 13 6 13 21 21 22
5 3 2 2 3 3 4 5 5 13 7 9 3 4 3 4 2 5 8 6 24 10 10 4 2 5 5 8 6 5 7 5 5 4 4 4 6 14 16 12 19 28 9 14 21
5 2 3 3 3 3 2 3 6 6 5 7 5 4 1 4 7 5 4 8 15 9 9 3 2 4 7 10 5 1 12 5 5 5 5 3 3 13 10 9 14 25 27 22 20
3 4 5 5 8 5 3 3 3 7 4 6 3 9 2 2 5 6 3 4 6 8 7 3 4 2 3 7 5 3 15 9 7 8 11 8 8 10 11 22 25 25 26 27 22
2 2 3 4 4 2 1 4 5 11 7 6 5 4 5 3 12 23 25 20 13 2 4 2 2 4 5 14 4 3 5 9 4 5 3 3 3 4 13 17 24 28 28 21 18
Wind_Direction
349 347 344 342 339 336 334 332 329 326 325 324 322 321 318 316 312 302 291 289 263 241 253 250 253 255 243 234 230 222 332 284 265 255 289 211 144 179 170 145 162 198 190 189 168
346 343 341 339 336 334 331 328 325 322 320 320 320 321 319 320 317 307 307 292 220 218 252 257 271 275 248 235 202 160 175 229 233 261 332 283 202 164 131 159 30 140 171 166 173
341 337 334 333 332 331 329 327 324 321 318 316 315 317 318 321 323 178 86 37 216 225 248 263 284 259 221 222 205 191 223 287 289 307 345 277 224 181 132 229 193 157 165 174 180
340 337 334 328 324 322 322 321 320 319 316 312 311 311 313 314 292 183 229 325 267 270 260 261 266 225 240 227 204 315 248 263 300 322 340 209 190 185 178 210 198 183 172 173 180
342 338 335 331 325 321 317 313 311 312 311 309 307 307 310 291 272 280 278 273 250 268 266 256 248 211 225 251 287 226 293 303 323 323 323 335 174 194 218 250 182 173 170 175 182
345 339 337 333 327 322 319 316 310 301 298 302 304 300 299 279 294 313 322 293 267 284 284 256 245 232 253 245 176 241 283 301 317 311 351 2 319 190 198 178 167 174 177 182 184
348 343 341 337 328 321 321 323 314 299 290 288 294 293 280 261 282 287 287 281 273 285 297 280 268 224 223 305 306 272 315 321 294 307 346 337 322 208 188 169 165 181 183 187 191
341 340 339 339 334 326 323 327 317 303 297 285 282 281 264 283 281 272 270 282 253 263 279 280 264 263 241 278 332 358 75 317 278 350 334 49 282 296 184 167 173 185 188 189 195
336 337 336 335 333 329 328 332 328 323 305 300 280 251 269 260 275 281 283 307 302 253 248 265 283 269 288 91 0 2 249 264 317 134 249 85 293 303 213 181 172 190 193 195 198
328 331 333 334 336 331 336 333 320 245 354 316 356 299 258 269 289 272 287 319 318 254 243 245 200 161 19 92 237 210 247 246 253 283 342 304 286 300 191 182 183 191 195 199 200
329 332 334 337 341 338 351 9 19 338 310 287 285 276 279 278 294 285 286 296 292 218 184 220 166 197 225 196 227 213 256 266 269 274 343 283 276 255 184 195 193 198 200 200 207
328 330 333 335 343 354 355 50 23 330 296 299 290 277 276 278 290 273 298 240 184 193 192 251 224 225 260 205 230 216 260 273 290 265 156 281 268 271 189 203 200 202 206 200 200
330 331 330 331 338 344 354 17 353 339 279 311 320 292 321 278 237 263 250 243 206 208 205 221 221 215 196 250 239 238 210 267 242 298 220 269 294 318 247 209 211 211 211 201 199
327 328 330 333 338 337 359 340 333 312 25 284 348 6 357 295 261 303 282 226 204 207 218 231 246 220 223 244 159 262 227 251 272 319 278 112 276 300 296 267 222 209 206 208 199
326 328 332 332 321 327 327 341 322 182 349 287 340 353 342 261 291 336 319 205 218 198 127 237 215 190 222 231 165 244 251 230 256 255 235 265 171 260 331 301 240 208 205 206 202
324 328 327 323 324 336 317 338 5 46 260 325 7 337 351 318 301 312 319 219 218 188 200 222 240 215 230 245 179 244 297 55 56 95 233 241 175 237 233 223 275 193 204 204 202
324 329 322 312 307 306 316 351 39 130 339 346 335 333 331 308 314 315 325 229 170 143 230 220 238 245 214 269 131 153 63 293 320 330 230 241 173 240 228 245 229 228 204 206 201
327 333 329 327 272 249 52 51 109 274 276 306 345 320 315 5 319 323 350 6 323 50 99 199 262 186 207 185 197 186 153 163 264 278 283 292 238 260 236 258 284 276 230 206 196
335 354 78 69 66 137 121 72 205 220 300 354 328 342 316 325 267 353 335 326 349 323 191 161 258 269 259 246 156 216 159 200 171 358 85 250 288 315 297 315 331 316 190 192 190
341 3 101 108 60 59 70 239 249 242 322 340 259 256 277 315 328 7 335 332 339 338 119 245 301 250 301 349 245 173 175 222 44 242 273 281 280 246 304 302 321 341 184 182 185
342 356 110 186 158 19 119 237 273 284 301 260 263 255 259 252 253 302 300 297 355 316 337 25 88 289 355 189 248 323 160 131 126 147 193 271 272 239 270 300 278 247 188 180 181
357 13 89 166 345 19 162 210 301 296 322 252 225 220 251 276 282 262 260 249 330 326 336 330 135 301 250 272 241 175 226 159 125 272 244 186 261 294 312 293 259 146 176 177 186
343 317 162 205 286 326 304 291 259 310 299 309 289 331 324 309 338 288 338 292 338 338 301 312 357 6 345 355 13 346 276 208 153 129 224 182 276 46 8 334 334 145 165 171 181
1 8 4 112 111 93 348 284 317 317 267 329 291 338 341 0 351 301 328 312 321 320 335 121 118 153 195 237 275 300 281 146 131 124 175 212 298 6 353 352 353 350 17 111 93
9 5 8 317 333 351 272 280 327 342 312 355 340 360 332 347 339 323 279 316 323 342 347 76 258 164 230 265 265 34 285 174 113 161 118 355 72 4 352 357 358 17 28 41 75
16 3 346 300 302 335 350 355 310 335 267 306 324 308 103 131 184 272 283 226 248 314 341 347 283 276 311 293 3 43 355 16 78 99 100 108 67 21 47 45 31 28 28 35 22
336 301 297 297 330 7 184 334 298 338 288 336 329 323 316 248 292 278 262 253 243 259 281 190 98 23 305 333 345 333 26 335 65 34 108 114 154 73 66 56 47 31 32 35 45
Height
1542 1539 1537 1535 1533 1530 1528 1526 1524 1521 1518 1516 1514 1511 1508 1505 1503 1500 1497 1497 1496 1497 1498 1499 1500 1502 1502 1502 1502 1503 1510 1514 1503 1497 1485 1472 1476 1477 1477 1479 1483 1483 1480 1480 1487
1541 1538 1536 1533 1531 1528 1526 1524 1522 1519 1517 1514 1512 1509 1506 1503 1499 1495 1495 1493 1494 1495 1496 1497 1498 1499 1500 1498 1498 1499 1511 1502 1488 1485 1482 1475 1474 1474 1479 1479 1481 1481 1482 1484 1487
1541 1538 1535 1531 1528 1525 1523 1521 1519 1516 1514 1512 1509 1507 1504 1501 1498 1494 1493 1493 1493 1494 1495 1496 1496 1497 1496 1494 1494 1493 1498 1488 1482 1478 1481 1476 1474 1476 1477 1481 1474 1471 1478 1482 1487
1540 1537 1533 1530 1527 1524 1520 1518 1516 1513 1511 1509 1507 1505 1503 1501 1503 1492 1492 1492 1493 1493 1493 1493 1494 1494 1493 1491 1489 1492 1485 1484 1480 1473 1474 1476 1471 1474 1472 1471 1470 1468 1470 1478 1484
1538 1535 1531 1528 1525 1521 1518 1515 1512 1510 1508 1506 1504 1502 1501 1499 1491 1492 1490 1490 1490 1489 1489 1490 1490 1490 1490 1487 1487 1486 1480 1477 1476 1472 1466 1467 1471 1469 1468 1469 1472 1475 1474 1476 1481
1537 1534 1529 1525 1522 1518 1515 1511 1509 1506 1504 1502 1501 1500 1500 1497 1489 1488 1487 1487 1488 1488 1486 1486 1485 1485 1485 1484 1485 1480 1478 1474 1470 1469 1468 1467 1461 1468 1467 1465 1469 1477 1473 1475 1478
1535 1532 1528 1523 1519 1515 1511 1508 1504 1500 1499 1498 1497 1495 1495 1482 1487 1485 1484 1485 1486 1485 1484 1484 1484 1484 1482 1481 1478 1477 1479 1473 1468 1468 1469 1466 1464 1463 1461 1462 1466 1474 1471 1473 1477
1533 1529 1525 1521 1516 1511 1508 1504 1499 1495 1494 1493 1492 1491 1485 1479 1480 1481 1479 1479 1481 1482 1483 1482 1482 1483 1481 1478 1476 1478 1480 1488 1467 1468 1468 1469 1484 1453 1460 1462 1463 1469 1470 1471 1474
1531 1526 1522 1518 1513 1508 1504 1500 1495 1492 1490 1489 1488 1488 1481 1474 1473 1476 1477 1475 1475 1477 1479 1480 1482 1482 1480 1483 1491 1489 1497 1489 1477 1466 1469 1471 1476 1455 1457 1458 1458 1466 1468 1468 1472
1530 1525 1521 1516 1511 1506 1502 1498 1493 1491 1489 1487 1487 1490 1476 1472 1472 1470 1474 1474 1472 1473 1475 1478 1478 1480 1486 1492 1508 1497 1492 1488 1484 1467 1468 1472 1468 1458 1454 1458 1455 1463 1464 1465 1466
1527 1523 1518 1514 1510 1504 1501 1496 1495 1493 1489 1489 1486 1485 1477 1469 1471 1466 1469 1471 1470 1470 1476 1472 1479 1485 1477 1480 1478 1481 1486 1489 1474 1463 1472 1467 1467 1457 1454 1459 1462 1461 1462 1462 1463
1525 1521 1516 1512 1508 1505 1503 1502 1506 1508 1486 1479 1473 1474 1470 1470 1471 1460 1466 1468 1464 1470 1468 1471 1476 1470 1469 1473 1476 1480 1486 1485 1471 1460 1473 1467 1465 1451 1450 1449 1451 1453 1457 1456 1463
1522 1518 1513 1509 1506 1505 1503 1504 1504 1501 1497 1471 1470 1469 1466 1467 1464 1453 1462 1461 1460 1465 1466 1467 1463 1463 1467 1471 1477 1479 1486 1479 1482 1462 1462 1465 1468 1454 1445 1445 1449 1452 1450 1452 1452
1521 1517 1512 1508 1507 1504 1503 1502 1502 1499 1506 1484 1471 1470 1469 1465 1462 1453 1449 1454 1455 1460 1462 1463 1458 1463 1465 1468 1474 1489 1464 1470 1473 1479 1488 1462 1497 1462 1447 1447 1444 1442 1448 1448 1450
1519 1515 1512 1508 1506 1503 1503 1500 1499 1499 1524 1479 1474 1473 1470 1467 1460 1449 1444 1444 1450 1454 1459 1462 1456 1460 1463 1459 1462 1467 1458 1466 1467 1474 1477 1468 1491 1467 1448 1447 1439 1437 1440 1442 1442
1516 1513 1509 1507 1503 1502 1500 1499 1499 1512 1521 1486 1479 1477 1472 1464 1459 1449 1443 1441 1440 1446 1449 1452 1447 1449 1450 1445 1452 1450 1456 1464 1474 1485 1500 1475 1478 1465 1455 1443 1430 1430 1431 1432 1437
1512 1510 1505 1502 1501 1500 1500 1499 1515 1524 1494 1495 1489 1482 1478 1471 1460 1453 1447 1445 1450 1462 1462 1451 1450 1444 1444 1451 1450 1454 1473 1493 1505 1504 1497 1466 1473 1453 1436 1428 1423 1420 1422 1424 1424
1508 1505 1502 1499 1498 1499 1500 1503 1518 1506 1501 1490 1489 1483 1480 1472 1463 1456 1454 1457 1444 1447 1461 1468 1468 1445 1438 1445 1453 1458 1472 1501 1505 1504 1483 1467 1471 1445 1421 1413 1412 1408 1409 1412 1419
1505 1503 1502 1501 1500 1501 1502 1519 1514 1507 1497 1497 1491 1492 1487 1475 1474 1466 1460 1458 1449 1444 1460 1467 1461 1433 1433 1434 1439 1449 1466 1452 1471 1481 1490 1476 1450 1424 1414 1409 1405 1398 1399 1402 1408
1505 1503 1504 1504 1504 1504 1506 1515 1508 1501 1498 1495 1501 1491 1494 1484 1481 1476 1466 1454 1453 1443 1441 1443 1458 1435 1429 1426 1427 1437 1435 1458 1472 1488 1492 1478 1459 1452 1424 1415 1408 1402 1399 1401 1408
1507 1504 1505 1505 1506 1505 1515 1515 1504 1498 1498 1496 1493 1494 1487 1485 1477 1476 1470 1458 1451 1447 1439 1441 1454 1449 1434 1437 1439 1440 1442 1443 1453 1476 1489 1492 1473 1429 1419 1416 1412 1406 1403 1403 1404
1508 1508 1505 1506 1509 1511 1513 1507 1500 1494 1490 1489 1487 1485 1485 1479 1476 1473 1472 1463 1453 1450 1450 1443 1456 1462 1447 1426 1423 1425 1431 1440 1462 1476 1482 1474 1466 1420 1419 1414 1409 1405 1408 1410 1417
1509 1508 1508 1508 1516 1515 1508 1504 1499 1495 1490 1487 1484 1482 1479 1481 1483 1473 1469 1459 1455 1450 1450 1446 1462 1475 1458 1441 1426 1431 1427 1422 1438 1450 1461 1472 1449 1423 1423 1420 1412 1405 1406 1408 1414
1512 1512 1508 1507 1509 1510 1511 1506 1501 1494 1490 1486 1485 1482 1481 1481 1479 1480 1474 1460 1454 1450 1445 1445 1462 1463 1475 1458 1447 1444 1430 1422 1426 1457 1453 1453 1446 1437 1437 1435 1431 1426 1420 1417 1427
1515 1516 1516 1516 1511 1512 1512 1507 1504 1501 1490 1487 1486 1485 1483 1486 1485 1482 1474 1465 1452 1449 1446 1448 1459 1459 1454 1448 1436 1435 1431 1422 1432 1434 1445 1452 1456 1447 1448 1443 1439 1437 1433 1435 1426
1517 1517 1516 1514 1512 1511 1509 1507 1505 1500 1496 1488 1487 1481 1480 1482 1483 1484 1476 1473 1466 1451 1452 1451 1458 1452 1448 1440 1437 1437 1435 1428 1434 1436 1441 1447 1451 1451 1450 1445 1442 1441 1441 1443 1439
1517 1517 1518 1513 1512 1512 1511 1509 1505 1502 1491 1488 1485 1483 1480 1476 1474 1469 1464 1461 1459 1458 1455 1453 1455 1463 1462 1445 1446 1450 1446 1448 1440 1439 1443 1451 1454 1451 1452 1448 1450 1448 1447 1451 1451